KE5KZS Weather Reports


Display with metric or nautical units.
time (UTC)temp
F
wind
direction
speed
MPH
gust
MPH
rain 1hr
in
rain 24hr
in
rain mn
in
humidity
%
barometer
mb
20260503210016 85 180 4.0 11.0 0.00 0.00 0.00 32 1015.5
20260503205036 85 180 5.0 12.0 0.00 0.00 0.00 33 1015.9
20260503204016 85 180 7.0 13.0 0.00 0.00 0.00 33 1016.0
20260503203056 86 180 4.0 7.0 0.00 0.00 0.00 35 1016.2
20260503202016 86 203 5.0 17.0 0.00 0.00 0.00 34 1016.3
20260503201016 86 203 3.0 8.0 0.00 0.00 0.00 36 1016.4
20260503200516 86 180 3.0 9.0 0.00 0.00 0.00 35 1016.6
20260503195516 85 203 4.0 14.0 0.00 0.00 0.00 37 1016.7
20260503194516 86 203 4.0 9.0 0.00 0.00 0.00 37 1016.9
20260503193516 85 135 4.0 10.0 0.00 0.00 0.00 35 1017.2
20260503192516 85 203 3.0 9.0 0.00 0.00 0.00 38 1017.4
20260503191516 84 203 4.0 12.0 0.00 0.00 0.00 40 1017.5
20260503190516 84 203 4.0 10.0 0.00 0.00 0.00 39 1017.6
20260503185516 84 203 2.0 6.0 0.00 0.00 0.00 38 1017.8
20260503184516 85 203 4.0 9.0 0.00 0.00 0.00 43 1018.0
20260503183516 84 158 4.0 11.0 0.00 0.00 0.00 40 1018.1
20260503182516 84 180 4.0 9.0 0.00 0.00 0.00 43 1018.2
20260503181516 84 203 3.0 9.0 0.00 0.00 0.00 42 1018.5
20260503180516 83 203 3.0 7.0 0.00 0.00 0.00 44 1018.5
20260503175516 83 203 2.0 6.0 0.00 0.00 0.00 45 1018.9
20260503174516 83 203 4.0 10.0 0.00 0.00 0.00 46 1019.1
20260503173536 83 203 3.0 9.0 0.00 0.00 0.00 47 1019.3
20260503172516 82 203 4.0 9.0 0.00 0.00 0.00 46 1019.4
20260503171516 82 203 2.0 8.0 0.00 0.00 0.00 47 1019.4
20260503170516 82 203 3.0 10.0 0.00 0.00 0.00 48 1019.6
20260503150556 75 203 4.0 9.0 0.00 0.00 0.00 55 1020.0
20260503130516 58 203 1.0 7.0 0.00 0.00 0.00 78 1019.6
20260503081016 61 180 2.0 7.0 0.00 0.00 0.00 66 1018.6
20260503072016 62 180 3.0 6.0 0.00 0.00 0.00 66 1018.9
20260503071016 62 203 3.0 6.0 0.00 0.00 0.00 67 1019.0
20260503054516 60 0.0 0.0 0.00 0.00 0.00 74 1018.6
20260503053516 60 0.0 0.0 0.00 0.00 0.00 74 1018.6
20260503052516 60 203 1.0 3.0 0.00 0.00 0.00 72 1018.6
20260503051556 59 203 1.0 4.0 0.00 0.00 0.00 73 1018.5
20260503050516 60 0.0 0.0 0.00 0.00 0.00 76 1018.4
20260503045517 61 0.0 0.0 0.00 0.00 0.00 75 1018.4
20260503044516 62 0.0 0.0 0.00 0.00 0.00 72 1018.4
20260503043517 62 0.0 2.0 0.00 0.00 0.00 67 1018.4
20260503042516 62 0.0 2.0 0.00 0.00 0.00 66 1018.3
20260503041516 62 0.0 2.0 0.00 0.00 0.00 66 1018.3
20260503040516 62 203 1.0 4.0 0.00 0.00 0.00 67 1018.5
20260503035516 61 203 1.0 2.0 0.00 0.00 0.00 68 1018.4
20260503034516 61 203 1.0 2.0 0.00 0.00 0.00 68 1018.3
20260503033517 61 0.0 2.0 0.00 0.00 0.00 68 1018.4
20260503032536 61 0.0 0.0 0.00 0.00 0.00 68 1018.3
20260503031516 62 0.0 2.0 0.00 0.00 0.00 69 1018.1
20260503030517 62 0.0 0.0 0.00 0.00 0.00 67 1018.1
20260503025516 63 0.0 0.0 0.00 0.00 0.00 67 1018.1
20260503024516 64 0.0 0.0 0.00 0.00 0.00 64 1017.9
20260503023516 65 0.0 0.0 0.00 0.00 0.00 62 1017.8
20260503022516 66 0.0 0.0 0.00 0.00 0.00 59 1017.7
20260503021516 67 0.0 0.0 0.00 0.00 0.00 57 1017.6
20260503020516 68 0.0 0.0 0.00 0.00 0.00 55 1017.6
20260503015516 69 0.0 1.0 0.00 0.00 0.00 54 1017.5
20260503014516 69 0.0 1.0 0.00 0.00 0.00 54 1017.5
20260503013517 70 203 1.0 2.0 0.00 0.00 0.00 52 1017.4
20260503012516 71 0.0 1.0 0.00 0.00 0.00 51 1017.3
20260503011537 71 203 1.0 2.0 0.00 0.00 0.00 50 1017.3
20260503010516 72 203 1.0 3.0 0.00 0.00 0.00 49 1017.3
20260503005516 72 203 1.0 3.0 0.00 0.00 0.00 48 1017.2
20260503004516 73 203 1.0 4.0 0.00 0.00 0.00 47 1017.2
20260503003517 73 225 2.0 5.0 0.00 0.00 0.00 47 1017.1
20260503002516 74 248 1.0 3.0 0.00 0.00 0.00 47 1017.1
20260503001516 74 0.0 2.0 0.00 0.00 0.00 45 1017.1
20260503000536 75 338 1.0 3.0 0.00 0.00 0.00 45 1017.1
20260502235516 75 0.0 2.0 0.00 0.00 0.00 45 1017.2
20260502234517 76 338 1.0 2.0 0.00 0.00 0.00 44 1017.2
20260502233516 76 0.0 2.0 0.00 0.00 0.00 45 1017.3
20260502232516 77 315 2.0 4.0 0.00 0.00 0.00 42 1017.4
20260502231517 77 270 1.0 2.0 0.00 0.00 0.00 43 1017.4
20260502230517 77 270 1.0 3.0 0.00 0.00 0.00 44 1017.5
20260502225556 77 270 1.0 4.0 0.00 0.00 0.00 44 1017.5
20260502224516 77 180 2.0 4.0 0.00 0.00 0.00 45 1017.5
20260502223516 77 180 1.0 3.0 0.00 0.00 0.00 44 1017.7
20260502222516 77 135 1.0 2.0 0.00 0.00 0.00 42 1017.7
20260502221517 77 135 1.0 3.0 0.00 0.00 0.00 43 1017.8
20260502220516 77 113 1.0 2.0 0.00 0.00 0.00 45 1017.8
20260502215516 78 180 2.0 3.0 0.00 0.00 0.00 41 1017.9
20260502214537 79 180 1.0 2.0 0.00 0.00 0.00 41 1018.0
20260502213537 79 203 2.0 7.0 0.00 0.00 0.00 44 1018.2
20260502212517 78 68 2.0 4.0 0.00 0.00 0.00 44 1018.3
20260502211516 78 45 2.0 4.0 0.00 0.00 0.00 42 1018.5